Weather Roundup
Issued by NWS

Home | Current Version | Previous Version | Text Only | Print | Product List | Glossary On
Versions: 1 2 3 4 5 6 7 8 9 10 11 12 13 14 15 16 17 18 19 20 21 22 23 24 25 26 27 28 29 30 31 32 33 34 35 36 37 38 39 40 41 42 43 44 45 46 47 48 49 50
000
NZUS93 KARX 241759
HRRWXR

CURRENT HOURLY OBSERVATIONS ACROSS
MUCH OF THE UPPER MISSISSIPPI VALLEY
NATIONAL WEATHER SERVICE LA CROSSE WI
1200 PM CST WED DEC 24 2014


...SOUTHEAST MINNESOTA...


CITY           SKY/WX    TMP DP  RH WIND       PRES   REMARKS
ROCHESTER      LGT RAIN  33  31  92 N15       29.66F FOG     WCI  23
ROCHESTER/MAYO CLOUDY    33  32  96 NW9       29.66F WCI  25
WINONA         CLOUDY    37  32  81 N8        29.65F WCI  31
AUSTIN         CLOUDY    34  30  86 NW13      29.67F WCI  25
ALBERT LEA     CLOUDY    34  34 100 NW9       29.69F FOG     WCI  26
DODGE CENTER   CLOUDY    34  32  93 NW12      29.66F WCI  25
PRESTON        CLOUDY    33  31  90 N12       29.64F WCI  24
OWATONNA       PTSUNNY   34  30  86 NW14      29.70F WCI  24
FARIBAULT      CLOUDY    36  30  80 W12       29.71F WCI  27
$$

...ELSEWHERE IN MINNESOTA...


CITY           SKY/WX    TMP DP  RH WIND       PRES   REMARKS
MINNEAPOLIS    CLOUDY    35  30  82 NW10      29.71F WCI  27
INTNL FALLS    CLOUDY    33  32  96 CALM      29.66F FOG
DULUTH         PTSUNNY   34  27  75 N6        29.66F WCI  29
RED WING       CLOUDY    37  32  81 N3        29.67F
REDWOOD FALLS  CLOUDY    32  30  92 NW8       29.75F WCI  25
MANKATO        CLOUDY    34  28  80 NW10      29.73F WCI  26
WORTHINGTON    CLOUDY    30 -17  12 NW10      29.76F WCI  21
FAIRMONT       CLOUDY    32  27  80 NW12      29.74F WCI  23
$$

...SOUTHWEST WISCONSIN...


CITY           SKY/WX    TMP DP  RH WIND       PRES   REMARKS
LA CROSSE      CLOUDY    38  32  79 N9        29.62F WCI  31
PRAIRIE DU CHI CLOUDY    36  32  86 NW7       29.62F WCI  30
BOSCOBEL       CLOUDY    37  32  82 N7        29.60F WCI  32
LONE ROCK      NOT AVBL
PLATTEVILLE    CLOUDY    35  32  91 CALM      29.59F
FORT MC COY    CLOUDY    34  33  96 NW7       29.62F WCI  28
VIROQUA        CLOUDY    33  33 100 N10       29.59F WCI  24
WIS DELLS      NOT AVBL
$$

...ELSEWHERE IN WISCONSIN...


CITY           SKY/WX    TMP DP  RH WIND       PRES   REMARKS
MILWAUKEE      CLOUDY    38  34  85 NW5       29.52F WCI  34
MADISON        LGTSLEET  35  33  92 N5        29.56F WCI  31
GREEN BAY      LGT RAIN  35  35 100 N5        29.56F VSB 1/4 WCI  31
EAU CLAIRE     NOT AVBL
BLACK RVR FLS  CLOUDY    36  34  94 N6        29.61F WCI  31
MEDFORD        CLOUDY    32  29  89 N9G16     29.59F WCI  24
WAUSAU         CLOUDY    34  31  88 N5        29.55F WCI  30
WIS RAPIDS     CLOUDY    34  31  88 N8        29.58F WCI  27
MARSHFIELD     CLOUDY    35  31  85 N7        29.57F WCI  29
RICE LAKE      CLOUDY    34  31  87 N5        29.69F WCI  30
$$

...NORTHEAST IOWA...


CITY           SKY/WX    TMP DP  RH WIND       PRES   REMARKS
DECORAH        CLOUDY    34  32  93 NW12      29.63F WCI  25
MASON CITY     CLOUDY    33  32  96 NW17      29.71F FOG     WCI  22
CHARLES CITY   CLOUDY    34  34 100 NW14      29.68F WCI  24
OELWEIN        CLOUDY    36  32  87 NW14      29.66F WCI  27
$$

...ELSEWHERE IN IOWA...


CITY           SKY/WX    TMP DP  RH WIND       PRES   REMARKS
DES MOINES     CLOUDY    35  31  85 NW15      29.75F WCI  25
IOWA CITY      CLOUDY    36  32  85 NW10      29.66F WCI  28
FORT DODGE     CLOUDY    34  28  80 NW9       29.75F WCI  26
$$

...NORTHERN ILLINOIS...


CITY           SKY/WX    TMP DP  RH WIND       PRES   REMARKS
CHICAGO-OHARE  CLOUDY    39  34  82 NW7       29.52F WCI  34
CHICAGO-MIDWAY LGT RAIN  41  36  82 W7        29.52F
MOLINE         CLOUDY    36  33  89 NW12      29.60F WCI  28
ROCKFORD       CLOUDY    37  34  89 NW9       29.56F FOG     WCI  30
PEORIA         CLOUDY    38  33  82 NW9       29.61F WCI  31
$$

NOTE: "FAIR" INDICATES FEW OR NO CLOUDS BELOW 12,000 FEET WITH NO
SIGNIFICANT WEATHER AND/OR OBSTRUCTIONS TO VISIBILITY. WIND
SPEEDS ARE IN MILES-PER-HOUR.



USA.gov is the U.S. government's official web portal to all federal, state and local government web resources and services.